C/2017 U7 ( PanSTARRS )

Japanese version
Home page
Updated on December 11, 2020

---------------------------------------------------------------------

* Profile

Discovery Date October 29, 2017
Magnitude 20.1 mag
Discoverer Pan-STARRS 1 telescope (Haleakala)

* Pictures

* Orbital Elements

Epoch 2019 Aug. 25.0 TT = JDT 2458720.5
T 2019 Sept. 11.28422 TT                                Rudenko
q   6.4172641            (2000.0)            P               Q
z  -0.0001199      Peri.  326.03246     +0.53147688     -0.59461118
 +/-0.0000006      Node   276.23229     -0.57731207     -0.77545287
e   1.0007696      Incl.  142.63533     -0.61987345     +0.21239208
From 672 observations 2017 Aug. 18-2020 Oct. 17, mean residual 0".6.

* Finding Charts

* Magnitudes Graph

        m1 = -8.5 + 5 log d + 25 log r(t - 150)

---------------------------------------------------------------------

The orbital elements are published on M.P.E.C. 2020-U96.
The charts are made with StellaNavigator Ver.10 (AstroArts).
The magnitudes graphs are made with Comet for Windows.

---------------------------------------------------------------------

Copyright(C) Seiichi Yoshida (comet@aerith.net). All rights reserved.